Location: Bun Machan
(52.1403°N, 7.3744°W)
Time: 08:37:18
(UTC+00:00)

Helios 1A - Pass Details

Date: 14 July 2020
Orbit: 587 x 600 km, 98.2° (Epoch: 01 August)

Event Time Altitude Azimuth Distance (km) Brightness Sun altitude
Exits shadow 00:38:49 31° 193° (SSW) 1,046 3.7 -16.2°
Maximum altitude 00:40:37 57° 258° (WSW) 697 3.2 -16.2°
Drops below altitude 10° 00:44:45 10° 338° (NNW) 1,931 6.6 -16.2°
Sets 00:46:57 0° 343° (NNW) 2,839 7.8 -16.2°
